Location: Ajisawe
(8.4333°N, 4.3833°E)
Time: 22:03:35
(UTC+00:00)

Vanguard 2 Rocket - Pass Details

Date: 27 April 2021
Orbit: 554 x 3326 km, 32.9° (Epoch: 16 May)

Event Time Altitude Azimuth Distance (km) Brightness Sun altitude
Rises 18:54:48 0° 300° (WNW) 7,252 13.1 -15.8°
Reaches altitude 10° 19:00:01 10° 298° (WNW) 6,076 12.4 -17.0°
Maximum altitude 19:17:57 67° 220° (SW) 2,466 9.0 -21.2°
Enters shadow 19:25:37 25° 144° (SE) 3,096 9.1 -23.0°
Drops below altitude 10° 19:28:35 10° 138° (SE) 3,799 - -23.7°
Sets 19:31:05 0° 135° (SE) 4,488 - -24.3°
